Flag Weather past 2 weeks in Nijmegen, Netherlands

Now
39 °F

Chilly.


Feels Like: 32 °F
Forecast: 37 / 43 °F
Wind: 10 mph from East

Location: Volkel

Current Time: Nov 25, 2014 at 10:15:20 PM

Latest Report: Nov 25, 2014 at 9:55 PM


Visibility: N/A

Pressure: 30.12 "Hg

Humidity: 93%

Dew point: 37 °F

Location of NijmegenLocation

Historic Weather in Nijmegen — Graph

°F

Nijmegen temperature yesterday

Maximum temperature yesterday: 54 °F (at 12:25 AM)
Minimum temperature yesterday: 34 °F (at 9:55 PM)
Average temperature yesterday: 45 °F

Past Weeks' High & Low Weather Summary

 TemperatureHumidityPressure
High57 °F (Nov 13, 2:25 PM)100% (Nov 11, 5:55 AM)30.33 "Hg (Nov 11, 5:55 AM)
Low28 °F (Nov 25, 2:25 AM)58% (Nov 24, 2:25 PM)29.50 "Hg (Nov 15, 1:55 PM)
Average46 °F90%29.90 "Hg
* Reported Nov 10 8:25 PM — Nov 25 8:55 PM, Nijmegen, Weather by CustomWeather, © 2014

Note: Actual official high and low records may vary slightly from our data, if they occured in-between our weather recording intervals... More about our weather records

Advertising

Nijmegen weather history for previous 24 hours

 ConditionsComfort  
Time TempWeatherWind HumidityBarometerVisibility
8:55 PM
Nov 25
41 °FQuite cool.10 mph87%30.15 "HgN/A
8:25 PM41 °FQuite cool.12 mph87%30.15 "HgN/A
8:04 PM43 °FQuite cool.13 mph81%30.15 "HgN/A
7:55 PM43 °FQuite cool.12 mph81%30.15 "HgN/A
7:25 PM43 °FQuite cool.13 mph87%30.15 "HgN/A
6:55 PM43 °FPassing clouds.12 mph81%30.15 "HgN/A
6:25 PM43 °FPassing clouds.12 mph87%30.15 "HgN/A
5:55 PM43 °FPassing clouds.10 mph87%30.18 "HgN/A
5:25 PM43 °FOvercast.9 mph87%30.18 "HgN/A
4:55 PM43 °FOvercast.9 mph87%30.18 "HgN/A
4:25 PM43 °FPassing clouds.9 mph87%30.18 "HgN/A
3:55 PM46 °FPassing clouds.9 mph76%30.18 "HgN/A
3:25 PM48 °FPassing clouds.12 mph71%30.21 "HgN/A
3:00 PM48 °FPartly sunny.12 mph76%30.21 "HgN/A
2:25 PM48 °FOvercast.12 mph76%30.21 "HgN/A
1:55 PM48 °FOvercast.13 mph76%30.21 "HgN/A
1:25 PM48 °FOvercast.10 mph76%30.24 "HgN/A
12:55 PM46 °FPartly sunny.9 mph82%30.24 "HgN/A
12:25 PM45 °FFog.7 mph87%30.27 "Hg6 mi
11:55 AM43 °FFog.8 mph93%30.27 "Hg6 mi
11:25 AM43 °FFog.8 mph87%30.27 "Hg6 mi
10:59 AM41 °FFog.8 mph93%30.30 "Hg5 mi
10:25 AM39 °FSunny.6 mph93%30.30 "HgN/A
9:55 AM36 °FSunny.7 mph100%30.30 "HgN/A
9:25 AM34 °FSunny.6 mph100%30.30 "HgN/A
8:55 AM32 °FSunny.3 mph100%30.30 "HgN/A
8:25 AM32 °FPassing clouds.3 mph100%30.30 "HgN/A
7:55 AM30 °FClear.5 mph100%30.30 "HgN/A
7:25 AM30 °FPassing clouds.2 mph100%30.30 "HgN/A
6:55 AM30 °FClear.3 mph100%30.30 "HgN/A
6:25 AM30 °FClear.3 mph100%30.30 "HgN/A
5:55 AM30 °FClear.3 mph100%30.30 "HgN/A
5:25 AM30 °FClear.2 mph93%30.30 "HgN/A
4:55 AM30 °FClear.2 mph100%30.30 "HgN/A
4:25 AM30 °FClear.1 mph100%30.30 "HgN/A
3:55 AM30 °FClear.3 mph100%30.30 "HgN/A
3:25 AM30 °FClear.2 mph100%30.30 "HgN/A
2:55 AM32 °FClear.No wind100%30.33 "HgN/A
2:25 AM28 °FPassing clouds.5 mph93%30.33 "HgN/A
1:55 AM30 °FClear.No wind100%30.33 "HgN/A
1:25 AM32 °FClear.1 mph100%30.33 "HgN/A
12:55 AM30 °FClear.No wind100%30.33 "HgN/A
12:25 AM32 °FClear.No wind100%30.33 "HgN/A
11:55 PM
Nov 24
34 °FClear.No wind100%30.33 "HgN/A
11:25 PM34 °FClear.2 mph100%30.33 "HgN/A
10:55 PM34 °FClear.1 mph100%30.33 "HgN/A
10:25 PM34 °FClear.No wind100%30.33 "HgN/A
Weather by CustomWeather, © 2014

See weather overviewHow to use our weather pages